Location: Pilipovskiye Korichintsy
(49.1833°N, 27.4667°E)
Time: 22:32:43
(UTC+00:00)

Lacrosse 5 - Visible Passes

Search period start: 26 October 2020 00:00
Search period end: 05 November 2020 00:00
Orbit: 716 x 723 km, 57.0° (Epoch: 23 October)

Date Brightness Start Highest point End Pass type
(mag) Time Alt. Az. Time Alt. Az. Time Alt. Az.
26 Oct 2.8 15:46:52 10° W 15:51:37 39° NNW 15:56:22 10° NE visible
26 Oct 2.8 17:30:52 10° WNW 17:35:33 36° N 17:35:35 36° N visible
26 Oct 4.7 19:14:03 10° NW 19:14:46 14° NW 19:14:46 14° NW visible
27 Oct 2.9 16:37:27 10° WNW 16:42:04 34° N 16:44:18 23° NE visible
27 Oct 3.6 18:20:53 10° NW 18:23:30 29° NW 18:23:30 29° NW visible
28 Oct 2.9 15:43:57 10° WNW 15:48:35 35° N 15:53:02 11° ENE visible
28 Oct 2.6 17:27:40 10° NW 17:32:14 42° N 17:32:14 42° N visible
28 Oct 4.7 19:10:44 10° WNW 19:11:26 14° WNW 19:11:26 14° WNW visible
29 Oct 2.8 16:34:22 10° WNW 16:39:03 36° N 16:40:59 27° NE visible
29 Oct 3.5 18:17:33 10° NW 18:20:11 31° NW 18:20:11 31° NW visible
30 Oct 2.9 15:40:58 10° WNW 15:45:35 34° N 15:49:47 12° ENE visible
30 Oct 2.2 17:24:23 10° NW 17:28:59 52° N 17:28:59 52° N visible
30 Oct 4.7 19:07:30 10° WNW 19:08:11 14° WNW 19:08:11 14° WNW visible
31 Oct 2.5 16:31:11 10° NW 16:36:00 42° NNE 16:37:48 31° ENE visible
31 Oct 3.4 18:14:15 10° WNW 18:17:00 33° WNW 18:17:00 33° WNW visible
01 Nov 2.7 15:37:53 10° WNW 15:42:34 36° N 15:46:40 13° ENE visible
01 Nov 1.9 17:21:05 10° NW 17:25:52 71° N 17:25:52 71° N visible
01 Nov 4.7 19:04:27 10° WNW 19:05:05 13° WNW 19:05:05 13° WNW visible
02 Nov 2.1 16:27:54 10° NW 16:32:53 53° NNE 16:34:48 34° E visible
02 Nov 3.4 18:11:01 10° WNW 18:14:01 32° W 18:14:01 32° W visible
03 Nov 2.5 15:34:42 10° NW 15:39:31 42° NNE 15:43:48 13° E visible
03 Nov 1.8 17:17:46 10° WNW 17:22:50 76° SW 17:23:01 75° SSW visible
03 Nov 4.8 19:01:50 10° W 19:02:14 11° W 19:02:14 11° W visible
04 Nov 1.8 16:24:35 10° NW 16:29:41 74° NNE 16:32:07 31° ESE visible
04 Nov 3.6 18:07:57 10° WNW 18:11:20 27° WSW 18:11:20 27° WSW visible
